QPF
0.00 0.00 0.00 0.00 0.00 0.00 0.00 0.00 0.00 0.00 0.00 0.00 0.00 0.00 0.00 0.00 0.01 0.01 0.01 0.00 0.01 0.01 0.01 0.03 0.04 0.04 0.02 0.02 0.02 0.02 0.02 0.02 0.02 0.02 0.02 0.02 0.03 0.03 0.03 0.03 0.06 0.07 0.07 0.08 0.08 0.08 0.09 0.07 0.07
0.00 0.00 0.00 0.00 0.00 0.00 0.00 0.00 0.00 0.01 0.00 0.00 0.00 0.00 0.00 0.00 0.00 0.00 0.00 0.01 0.00 0.01 0.01 0.02 0.04 0.04 0.02 0.01 0.01 0.02 0.02 0.02 0.02 0.02 0.02 0.02 0.03 0.03 0.03 0.04 0.05 0.06 0.07 0.08 0.08 0.08 0.10 0.08 0.07
0.00 0.00 0.00 0.00 0.00 0.00 0.00 0.00 0.00 0.01 0.00 0.00 0.00 0.00 0.00 0.00 0.00 0.00 0.01 0.01 0.00 0.00 0.01 0.03 0.03 0.04 0.03 0.04 0.03 0.03 0.02 0.01 0.01 0.01 0.01 0.02 0.03 0.02 0.02 0.03 0.05 0.05 0.06 0.06 0.07 0.06 0.06 0.06 0.06
0.00 0.00 0.00 0.00 0.00 0.00 0.00 0.00 0.00 0.00 0.00 0.00 0.00 0.00 0.00 0.01 0.01 0.01 0.00 0.00 0.00 0.00 0.00 0.01 0.02 0.02 0.02 0.03 0.03 0.03 0.03 0.02 0.01 0.01 0.01 0.02 0.02 0.02 0.02 0.03 0.04 0.04 0.05 0.05 0.06 0.05 0.05 0.06 0.05
0.00 0.00 0.00 0.00 0.00 0.00 0.00 0.00 0.00 0.00 0.00 0.00 0.00 0.00 0.01 0.00 0.00 0.00 0.00 0.00 0.00 0.00 0.01 0.01 0.01 0.02 0.02 0.03 0.03 0.03 0.04 0.03 0.01 0.01 0.03 0.03 0.02 0.02 0.02 0.03 0.05 0.06 0.06 0.06 0.06 0.04 0.04 0.06 0.06
0.00 0.00 0.00 0.00 0.00 0.00 0.00 0.00 0.00 0.00 0.00 0.00 0.00 0.00 0.01 0.01 0.00 0.00 0.01 0.01 0.00 0.00 0.00 0.01 0.02 0.01 0.02 0.03 0.03 0.02 0.02 0.02 0.02 0.02 0.02 0.01 0.02 0.02 0.02 0.03 0.06 0.09 0.10 0.09 0.06 0.04 0.05 0.07 0.07
0.00 0.00 0.00 0.00 0.00 0.00 0.00 0.00 0.00 0.00 0.00 0.00 0.00 0.00 0.01 0.00 0.00 0.00 0.01 0.01 0.01 0.01 0.02 0.03 0.04 0.01 0.02 0.03 0.03 0.02 0.02 0.02 0.02 0.02 0.02 0.01 0.01 0.03 0.03 0.04 0.07 0.11 0.14 0.10 0.07 0.05 0.06 0.06 0.07
0.00 0.00 0.00 0.00 0.00 0.00 0.00 0.00 0.00 0.00 0.00 0.00 0.00 0.00 0.01 0.00 0.00 0.00 0.00 0.01 0.01 0.01 0.02 0.03 0.04 0.03 0.02 0.03 0.02 0.02 0.02 0.02 0.02 0.02 0.02 0.02 0.01 0.03 0.05 0.05 0.09 0.15 0.13 0.10 0.08 0.07 0.06 0.06 0.07
0.00 0.00 0.00 0.00 0.00 0.00 0.00 0.00 0.00 0.00 0.00 0.00 0.00 0.00 0.00 0.00 0.00 0.00 0.00 0.00 0.00 0.01 0.01 0.02 0.03 0.04 0.04 0.02 0.02 0.02 0.03 0.03 0.03 0.02 0.02 0.02 0.02 0.03 0.05 0.07 0.12 0.14 0.11 0.09 0.08 0.07 0.07 0.05 0.06
0.00 0.00 0.00 0.00 0.00 0.00 0.00 0.00 0.00 0.00 0.00 0.00 0.00 0.00 0.00 0.00 0.00 0.00 0.00 0.00 0.00 0.01 0.01 0.01 0.02 0.03 0.04 0.03 0.04 0.05 0.04 0.04 0.03 0.03 0.02 0.03 0.02 0.02 0.04 0.07 0.08 0.09 0.09 0.10 0.09 0.08 0.06 0.05 0.07
0.00 0.00 0.00 0.00 0.00 0.00 0.00 0.00 0.00 0.00 0.00 0.00 0.00 0.00 0.00 0.00 0.00 0.00 0.00 0.00 0.00 0.00 0.00 0.01 0.01 0.02 0.03 0.03 0.06 0.06 0.05 0.05 0.04 0.03 0.03 0.02 0.01 0.01 0.02 0.04 0.06 0.07 0.09 0.10 0.08 0.06 0.06 0.06 0.07
0.00 0.00 0.00 0.00 0.00 0.00 0.00 0.00 0.00 0.00 0.00 0.00 0.00 0.00 0.00 0.00 0.00 0.00 0.00 0.00 0.00 0.00 0.00 0.01 0.01 0.01 0.02 0.05 0.05 0.07 0.04 0.03 0.02 0.03 0.03 0.03 0.02 0.02 0.02 0.04 0.06 0.06 0.08 0.08 0.05 0.06 0.07 0.07 0.07
0.00 0.00 0.00 0.00 0.00 0.00 0.00 0.00 0.00 0.00 0.00 0.00 0.00 0.00 0.00 0.00 0.00 0.00 0.00 0.00 0.01 0.00 0.01 0.00 0.01 0.01 0.02 0.04 0.09 0.11 0.07 0.04 0.02 0.02 0.02 0.03 0.03 0.03 0.03 0.04 0.05 0.05 0.07 0.07 0.06 0.06 0.07 0.08 0.08
0.00 0.00 0.00 0.00 0.00 0.00 0.00 0.00 0.00 0.00 0.00 0.00 0.00 0.00 0.00 0.00 0.00 0.00 0.00 0.01 0.01 0.01 0.01 0.01 0.01 0.01 0.02 0.03 0.08 0.16 0.13 0.06 0.03 0.02 0.01 0.01 0.02 0.03 0.03 0.04 0.06 0.06 0.06 0.07 0.05 0.05 0.07 0.08 0.08
0.00 0.00 0.00 0.00 0.00 0.00 0.00 0.00 0.00 0.00 0.00 0.00 0.00 0.00 0.00 0.00 0.00 0.00 0.01 0.01 0.01 0.01 0.02 0.03 0.02 0.02 0.02 0.02 0.05 0.11 0.17 0.09 0.03 0.01 0.01 0.01 0.01 0.02 0.03 0.03 0.06 0.07 0.06 0.05 0.04 0.04 0.05 0.07 0.09
0.00 0.00 0.00 0.00 0.00 0.00 0.00 0.00 0.00 0.00 0.00 0.00 0.00 0.00 0.00 0.00 0.01 0.02 0.02 0.02 0.02 0.02 0.03 0.04 0.04 0.03 0.03 0.03 0.05 0.09 0.16 0.13 0.06 0.03 0.02 0.02 0.02 0.02 0.02 0.03 0.06 0.08 0.06 0.04 0.04 0.03 0.04 0.06 0.10
0.00 0.00 0.00 0.00 0.00 0.00 0.00 0.00 0.00 0.00 0.00 0.00 0.00 0.00 0.00 0.01 0.02 0.02 0.02 0.02 0.02 0.03 0.04 0.05 0.06 0.06 0.05 0.04 0.05 0.08 0.13 0.13 0.09 0.06 0.05 0.04 0.03 0.02 0.03 0.04 0.07 0.08 0.07 0.06 0.05 0.05 0.05 0.06 0.09
0.00 0.00 0.00 0.00 0.00 0.00 0.00 0.00 0.00 0.00 0.00 0.00 0.00 0.00 0.01 0.01 0.01 0.01 0.01 0.02 0.02 0.05 0.09 0.09 0.07 0.07 0.07 0.05 0.05 0.10 0.12 0.11 0.10 0.10 0.09 0.05 0.04 0.03 0.02 0.03 0.05 0.07 0.09 0.08 0.08 0.07 0.07 0.08 0.10
0.00 0.00 0.00 0.00 0.00 0.00 0.00 0.00 0.00 0.00 0.00 0.00 0.00 0.01 0.00 0.00 0.00 0.00 0.00 0.01 0.02 0.04 0.05 0.07 0.07 0.06 0.06 0.06 0.06 0.11 0.15 0.09 0.09 0.11 0.10 0.07 0.04 0.03 0.03 0.03 0.04 0.05 0.07 0.08 0.09 0.10 0.10 0.10 0.09
0.00 0.00 0.00 0.00 0.00 0.00 0.00 0.00 0.00 0.00 0.01 0.01 0.01 0.00 0.00 0.00 0.00 0.01 0.01 0.01 0.02 0.04 0.05 0.07 0.07 0.06 0.05 0.04 0.06 0.09 0.12 0.10 0.08 0.09 0.10 0.08 0.06 0.05 0.04 0.05 0.04 0.05 0.06 0.07 0.08 0.10 0.11 0.11 0.11
0.00 0.00 0.00 0.00 0.00 0.00 0.00 0.00 0.00 0.00 0.00 0.01 0.01 0.00 0.01 0.00 0.00 0.01 0.02 0.02 0.02 0.02 0.03 0.05 0.05 0.06 0.07 0.07 0.08 0.08 0.08 0.10 0.10 0.09 0.11 0.12 0.08 0.07 0.06 0.06 0.06 0.06 0.06 0.08 0.08 0.08 0.09 0.09 0.10
0.00 0.00 0.00 0.00 0.00 0.00 0.00 0.00 0.00 0.00 0.00 0.01 0.01 0.01 0.01 0.01 0.01 0.01 0.01 0.02 0.02 0.02 0.02 0.05 0.05 0.04 0.05 0.05 0.06 0.08 0.08 0.09 0.09 0.09 0.09 0.12 0.10 0.07 0.06 0.05 0.06 0.09 0.10 0.10 0.10 0.07 0.07 0.08 0.08
0.00 0.00 0.00 0.00 0.00 0.00 0.00 0.00 0.00 0.00 0.00 0.01 0.01 0.01 0.01 0.01 0.01 0.02 0.02 0.02 0.02 0.02 0.02 0.04 0.04 0.02 0.03 0.04 0.04 0.06 0.05 0.05 0.06 0.06 0.07 0.08 0.08 0.08 0.07 0.06 0.07 0.10 0.11 0.11 0.11 0.09 0.06 0.07 0.08
0.00 0.00 0.00 0.00 0.00 0.00 0.00 0.00 0.00 0.00 0.00 0.00 0.00 0.01 0.01 0.01 0.01 0.02 0.03 0.03 0.03 0.03 0.03 0.03 0.03 0.03 0.02 0.03 0.04 0.04 0.03 0.03 0.04 0.07 0.06 0.05 0.06 0.09 0.08 0.07 0.08 0.11 0.12 0.10 0.09 0.08 0.06 0.06 0.07
0.00 0.00 0.00 0.00 0.00 0.00 0.00 0.00 0.00 0.00 0.00 0.00 0.00 0.01 0.01 0.01 0.01 0.02 0.03 0.03 0.03 0.06 0.07 0.09 0.10 0.07 0.04 0.04 0.03 0.02 0.02 0.03 0.04 0.05 0.04 0.04 0.04 0.06 0.10 0.08 0.08 0.10 0.12 0.10 0.08 0.08 0.08 0.08 0.09
0.00 0.00 0.00 0.00 0.00 0.00 0.00 0.00 0.00 0.00 0.00 0.00 0.00 0.00 0.00 0.01 0.01 0.02 0.03 0.05 0.06 0.08 0.08 0.12 0.12 0.06 0.04 0.03 0.02 0.02 0.02 0.02 0.02 0.03 0.03 0.03 0.03 0.04 0.06 0.06 0.06 0.08 0.11 0.12 0.10 0.09 0.08 0.10 0.10
0.00 0.00 0.00 0.00 0.00 0.00 0.00 0.00 0.00 0.00 0.00 0.00 0.00 0.00 0.00 0.00 0.00 0.01 0.01 0.02 0.03 0.05 0.03 0.04 0.04 0.03 0.03 0.03 0.02 0.02 0.02 0.02 0.02 0.02 0.02 0.02 0.02 0.02 0.03 0.05 0.05 0.06 0.08 0.11 0.11 0.09 0.08 0.09 0.10
0.01 0.01 0.01 0.01 0.01 0.01 0.01 0.01 0.01 0.00 0.00 0.00 0.00 0.00 0.00 0.00 0.00 0.01 0.01 0.01 0.01 0.01 0.01 0.02 0.03 0.04 0.04 0.03 0.02 0.02 0.01 0.02 0.02 0.02 0.02 0.02 0.02 0.01 0.03 0.05 0.06 0.05 0.05 0.07 0.09 0.08 0.07 0.08 0.08
0.01 0.01 0.01 0.01 0.01 0.01 0.01 0.01 0.01 0.01 0.01 0.00 0.00 0.00 0.01 0.00 0.00 0.00 0.01 0.01 0.01 0.01 0.01 0.02 0.02 0.02 0.03 0.03 0.02 0.02 0.01 0.01 0.01 0.01 0.01 0.01 0.02 0.02 0.02 0.03 0.03 0.03 0.04 0.05 0.08 0.09 0.07 0.06 0.06
0.00 0.01 0.01 0.02 0.01 0.01 0.01 0.01 0.01 0.02 0.02 0.01 0.00 0.00 0.00 0.00 0.00 0.00 0.00 0.00 0.01 0.01 0.01 0.01 0.01 0.01 0.01 0.02 0.02 0.02 0.01 0.01 0.01 0.01 0.01 0.01 0.02 0.02 0.02 0.02 0.02 0.02 0.02 0.04 0.05 0.07 0.07 0.06 0.06
MSLP
1008.53 1008.88 1009.18 1009.33 1009.25 1008.95 1008.46 1007.88 1007.34 1006.95 1006.75 1006.75 1006.89 1007.04 1007.11 1006.99 1006.63 1006.09 1005.45 1004.87 1004.47 1004.36 1004.59 1005.12 1005.86 1006.67 1007.39 1007.93 1008.24 1008.33 1008.25 1008.09 1007.96 1007.90 1007.95 1008.09 1008.26 1008.42 1008.51 1008.52 1008.45 1008.36 1008.28 1008.27 1008.37 1008.60 1008.94 1009.38 1009.87
1008.56 1008.94 1009.22 1009.32 1009.18 1008.80 1008.23 1007.57 1006.94 1006.44 1006.13 1006.00 1006.00 1006.05 1006.03 1005.88 1005.57 1005.13 1004.66 1004.28 1004.09 1004.17 1004.56 1005.19 1005.97 1006.77 1007.47 1007.97 1008.25 1008.31 1008.23 1008.09 1007.97 1007.92 1007.96 1008.08 1008.22 1008.35 1008.41 1008.40 1008.34 1008.27 1008.24 1008.30 1008.47 1008.76 1009.16 1009.64 1010.17
1008.62 1009.00 1009.25 1009.30 1009.09 1008.64 1008.01 1007.29 1006.60 1006.02 1005.61 1005.36 1005.24 1005.17 1005.07 1004.88 1004.60 1004.25 1003.92 1003.72 1003.71 1003.97 1004.48 1005.20 1006.01 1006.81 1007.48 1007.95 1008.20 1008.26 1008.19 1008.07 1007.97 1007.94 1007.98 1008.08 1008.19 1008.28 1008.31 1008.29 1008.24 1008.20 1008.22 1008.35 1008.58 1008.94 1009.40 1009.92 1010.48
1008.67 1009.04 1009.25 1009.24 1008.98 1008.48 1007.83 1007.09 1006.37 1005.75 1005.28 1004.95 1004.72 1004.54 1004.36 1004.12 1003.84 1003.56 1003.35 1003.28 1003.43 1003.81 1004.42 1005.18 1006.00 1006.78 1007.41 1007.85 1008.08 1008.14 1008.10 1008.01 1007.95 1007.94 1007.99 1008.08 1008.16 1008.22 1008.23 1008.20 1008.17 1008.16 1008.23 1008.41 1008.71 1009.12 1009.62 1010.17 1010.74
1008.72 1009.05 1009.20 1009.14 1008.84 1008.34 1007.68 1006.97 1006.27 1005.66 1005.16 1004.78 1004.48 1004.22 1003.95 1003.67 1003.39 1003.15 1003.01 1003.04 1003.28 1003.75 1004.40 1005.17 1005.97 1006.70 1007.28 1007.68 1007.90 1007.97 1007.96 1007.91 1007.89 1007.91 1007.97 1008.05 1008.12 1008.16 1008.16 1008.13 1008.11 1008.13 1008.24 1008.47 1008.80 1009.25 1009.77 1010.33 1010.91
1008.73 1009.00 1009.10 1008.99 1008.67 1008.18 1007.57 1006.92 1006.28 1005.71 1005.23 1004.83 1004.48 1004.16 1003.84 1003.52 1003.22 1003.00 1002.91 1003.00 1003.29 1003.78 1004.43 1005.17 1005.92 1006.58 1007.11 1007.47 1007.68 1007.76 1007.78 1007.78 1007.79 1007.84 1007.92 1008.00 1008.06 1008.08 1008.07 1008.04 1008.03 1008.08 1008.22 1008.47 1008.84 1009.29 1009.82 1010.38 1010.96
1008.69 1008.89 1008.92 1008.78 1008.45 1008.00 1007.45 1006.88 1006.33 1005.83 1005.39 1004.99 1004.61 1004.25 1003.89 1003.55 1003.25 1003.04 1002.98 1003.10 1003.41 1003.90 1004.52 1005.21 1005.88 1006.47 1006.94 1007.26 1007.45 1007.56 1007.60 1007.64 1007.69 1007.76 1007.84 1007.91 1007.95 1007.95 1007.93 1007.90 1007.90 1007.97 1008.13 1008.40 1008.78 1009.24 1009.77 1010.33 1010.90
1008.58 1008.70 1008.67 1008.49 1008.18 1007.77 1007.30 1006.82 1006.35 1005.92 1005.51 1005.12 1004.74 1004.35 1003.97 1003.62 1003.33 1003.16 1003.13 1003.27 1003.59 1004.07 1004.64 1005.26 1005.86 1006.38 1006.79 1007.08 1007.27 1007.39 1007.47 1007.53 1007.60 1007.68 1007.75 1007.79 1007.80 1007.77 1007.72 1007.68 1007.69 1007.77 1007.96 1008.25 1008.64 1009.12 1009.65 1010.21 1010.79
1008.41 1008.45 1008.36 1008.15 1007.85 1007.48 1007.09 1006.68 1006.28 1005.90 1005.51 1005.12 1004.73 1004.33 1003.95 1003.61 1003.36 1003.23 1003.25 1003.44 1003.78 1004.24 1004.78 1005.35 1005.88 1006.34 1006.71 1006.98 1007.17 1007.30 1007.40 1007.48 1007.56 1007.62 1007.65 1007.65 1007.61 1007.53 1007.45 1007.40 1007.40 1007.50 1007.71 1008.04 1008.46 1008.97 1009.52 1010.10 1010.70
1008.19 1008.15 1008.01 1007.78 1007.50 1007.17 1006.83 1006.48 1006.12 1005.75 1005.36 1004.96 1004.54 1004.13 1003.76 1003.46 1003.27 1003.21 1003.31 1003.56 1003.93 1004.41 1004.93 1005.46 1005.95 1006.37 1006.70 1006.96 1007.16 1007.31 1007.42 1007.51 1007.57 1007.60 1007.58 1007.51 1007.40 1007.26 1007.14 1007.07 1007.08 1007.20 1007.45 1007.82 1008.30 1008.86 1009.46 1010.08 1010.71
1007.94 1007.84 1007.66 1007.43 1007.16 1006.87 1006.56 1006.24 1005.89 1005.50 1005.08 1004.64 1004.19 1003.78 1003.43 1003.18 1003.07 1003.11 1003.30 1003.64 1004.08 1004.58 1005.11 1005.62 1006.07 1006.47 1006.79 1007.04 1007.24 1007.40 1007.52 1007.60 1007.63 1007.61 1007.52 1007.38 1007.20 1007.00 1006.84 1006.75 1006.77 1006.93 1007.23 1007.67 1008.22 1008.85 1009.52 1010.20 1010.88
1007.70 1007.56 1007.36 1007.13 1006.89 1006.63 1006.36 1006.04 1005.67 1005.25 1004.77 1004.28 1003.79 1003.36 1003.04 1002.86 1002.84 1002.99 1003.30 1003.73 1004.24 1004.79 1005.33 1005.83 1006.27 1006.64 1006.94 1007.19 1007.39 1007.55 1007.66 1007.72 1007.72 1007.64 1007.49 1007.27 1007.02 1006.78 1006.58 1006.49 1006.54 1006.74 1007.11 1007.63 1008.27 1008.99 1009.74 1010.50 1011.22
1007.50 1007.34 1007.14 1006.94 1006.74 1006.53 1006.28 1005.96 1005.57 1005.09 1004.56 1004.00 1003.48 1003.04 1002.75 1002.63 1002.71 1002.97 1003.39 1003.92 1004.50 1005.08 1005.64 1006.12 1006.53 1006.87 1007.15 1007.37 1007.56 1007.70 1007.80 1007.83 1007.79 1007.66 1007.46 1007.19 1006.90 1006.62 1006.42 1006.34 1006.42 1006.69 1007.14 1007.74 1008.48 1009.28 1010.12 1010.95 1011.73
1007.39 1007.22 1007.05 1006.90 1006.75 1006.59 1006.38 1006.07 1005.66 1005.14 1004.56 1003.95 1003.39 1002.95 1002.68 1002.63 1002.79 1003.15 1003.66 1004.26 1004.89 1005.49 1006.03 1006.48 1006.85 1007.14 1007.37 1007.55 1007.70 1007.81 1007.88 1007.88 1007.81 1007.65 1007.42 1007.13 1006.82 1006.55 1006.37 1006.33 1006.46 1006.79 1007.31 1008.00 1008.81 1009.70 1010.62 1011.51 1012.33
1007.36 1007.21 1007.09 1007.00 1006.93 1006.83 1006.67 1006.39 1005.98 1005.44 1004.82 1004.19 1003.61 1003.17 1002.93 1002.92 1003.15 1003.57 1004.13 1004.77 1005.41 1006.00 1006.51 1006.91 1007.20 1007.42 1007.58 1007.70 1007.79 1007.85 1007.88 1007.85 1007.75 1007.59 1007.35 1007.08 1006.80 1006.56 1006.43 1006.44 1006.63 1007.02 1007.60 1008.35 1009.23 1010.18 1011.15 1012.09 1012.95
1007.43 1007.31 1007.24 1007.23 1007.24 1007.22 1007.12 1006.88 1006.50 1005.97 1005.35 1004.71 1004.13 1003.71 1003.49 1003.51 1003.76 1004.22 1004.80 1005.43 1006.05 1006.59 1007.03 1007.35 1007.56 1007.68 1007.75 1007.79 1007.81 1007.81 1007.79 1007.74 1007.63 1007.47 1007.27 1007.04 1006.81 1006.64 1006.57 1006.65 1006.90 1007.33 1007.95 1008.74 1009.65 1010.63 1011.63 1012.60 1013.49
1007.56 1007.48 1007.48 1007.54 1007.63 1007.69 1007.66 1007.48 1007.15 1006.65 1006.06 1005.44 1004.89 1004.48 1004.28 1004.31 1004.57 1005.01 1005.56 1006.15 1006.71 1007.18 1007.54 1007.76 1007.88 1007.91 1007.89 1007.84 1007.78 1007.72 1007.66 1007.58 1007.47 1007.34 1007.18 1007.01 1006.86 1006.77 1006.77 1006.91 1007.20 1007.67 1008.30 1009.09 1010.00 1010.98 1011.99 1012.97 1013.89
1007.74 1007.70 1007.75 1007.88 1008.04 1008.17 1008.22 1008.11 1007.84 1007.40 1006.85 1006.28 1005.76 1005.37 1005.17 1005.20 1005.43 1005.83 1006.32 1006.85 1007.33 1007.71 1007.98 1008.12 1008.15 1008.10 1008.00 1007.87 1007.75 1007.63 1007.52 1007.43 1007.32 1007.21 1007.11 1007.01 1006.94 1006.92 1006.99 1007.17 1007.49 1007.96 1008.58 1009.34 1010.21 1011.17 1012.18 1013.17 1014.10
1007.92 1007.92 1008.02 1008.20 1008.42 1008.61 1008.72 1008.68 1008.47 1008.10 1007.62 1007.10 1006.63 1006.26 1006.07 1006.06 1006.25 1006.58 1007.00 1007.43 1007.82 1008.13 1008.32 1008.39 1008.36 1008.25 1008.09 1007.92 1007.75 1007.59 1007.45 1007.33 1007.23 1007.15 1007.08 1007.04 1007.03 1007.08 1007.19 1007.40 1007.72 1008.17 1008.74 1009.45 1010.28 1011.19 1012.17 1013.17 1014.13
1008.10 1008.13 1008.26 1008.48 1008.73 1008.97 1009.13 1009.15 1009.01 1008.72 1008.31 1007.86 1007.42 1007.08 1006.87 1006.83 1006.95 1007.20 1007.52 1007.86 1008.16 1008.40 1008.53 1008.57 1008.51 1008.38 1008.21 1008.01 1007.82 1007.63 1007.47 1007.34 1007.23 1007.16 1007.12 1007.12 1007.15 1007.23 1007.36 1007.57 1007.87 1008.27 1008.79 1009.42 1010.18 1011.05 1012.00 1013.00 1013.99
1008.28 1008.32 1008.47 1008.71 1008.99 1009.26 1009.46 1009.53 1009.46 1009.24 1008.91 1008.52 1008.13 1007.81 1007.58 1007.49 1007.53 1007.68 1007.89 1008.14 1008.36 1008.54 1008.65 1008.67 1008.62 1008.51 1008.35 1008.17 1007.97 1007.78 1007.61 1007.47 1007.36 1007.28 1007.24 1007.25 1007.29 1007.37 1007.50 1007.68 1007.94 1008.28 1008.73 1009.29 1009.98 1010.79 1011.71 1012.70 1013.72
1008.46 1008.52 1008.68 1008.93 1009.22 1009.51 1009.75 1009.88 1009.87 1009.73 1009.48 1009.16 1008.81 1008.49 1008.25 1008.10 1008.05 1008.09 1008.20 1008.34 1008.48 1008.61 1008.70 1008.73 1008.71 1008.64 1008.52 1008.37 1008.20 1008.03 1007.86 1007.70 1007.58 1007.49 1007.44 1007.43 1007.45 1007.52 1007.62 1007.76 1007.97 1008.25 1008.62 1009.12 1009.74 1010.50 1011.39 1012.37 1013.40
1008.68 1008.76 1008.92 1009.18 1009.48 1009.79 1010.06 1010.25 1010.32 1010.26 1010.09 1009.84 1009.53 1009.23 1008.95 1008.73 1008.59 1008.52 1008.51 1008.54 1008.60 1008.68 1008.74 1008.78 1008.79 1008.77 1008.70 1008.61 1008.48 1008.33 1008.17 1008.01 1007.88 1007.77 1007.70 1007.66 1007.66 1007.69 1007.76 1007.86 1008.01 1008.24 1008.56 1008.99 1009.56 1010.27 1011.12 1012.07 1013.09
1008.97 1009.05 1009.23 1009.48 1009.80 1010.15 1010.46 1010.71 1010.86 1010.89 1010.81 1010.63 1010.37 1010.07 1009.76 1009.48 1009.23 1009.04 1008.90 1008.82 1008.79 1008.79 1008.82 1008.86 1008.88 1008.90 1008.88 1008.83 1008.74 1008.63 1008.49 1008.35 1008.21 1008.09 1008.00 1007.94 1007.91 1007.92 1007.95 1008.02 1008.14 1008.33 1008.61 1009.00 1009.52 1010.19 1010.99 1011.90 1012.88
1009.34 1009.43 1009.60 1009.88 1010.22 1010.59 1010.97 1011.29 1011.53 1011.65 1011.66 1011.55 1011.34 1011.05 1010.71 1010.36 1010.01 1009.70 1009.44 1009.23 1009.08 1009.00 1008.96 1008.97 1009.00 1009.02 1009.04 1009.02 1008.97 1008.89 1008.79 1008.66 1008.54 1008.43 1008.33 1008.27 1008.23 1008.22 1008.24 1008.30 1008.40 1008.58 1008.84 1009.20 1009.70 1010.32 1011.07 1011.92 1012.83
1009.80 1009.88 1010.06 1010.34 1010.71 1011.12 1011.56 1011.96 1012.28 1012.50 1012.60 1012.55 1012.39 1012.11 1011.75 1011.34 1010.90 1010.48 1010.09 1009.75 1009.49 1009.30 1009.19 1009.13 1009.12 1009.14 1009.16 1009.16 1009.14 1009.10 1009.03 1008.95 1008.86 1008.77 1008.70 1008.66 1008.63 1008.63 1008.66 1008.73 1008.84 1009.02 1009.28 1009.64 1010.11 1010.70 1011.39 1012.16 1012.98
1010.31 1010.38 1010.56 1010.84 1011.23 1011.69 1012.18 1012.64 1013.05 1013.35 1013.52 1013.54 1013.42 1013.16 1012.79 1012.33 1011.82 1011.30 1010.80 1010.35 1009.98 1009.68 1009.47 1009.34 1009.28 1009.25 1009.25 1009.26 1009.26 1009.25 1009.23 1009.19 1009.16 1009.12 1009.11 1009.10 1009.12 1009.15 1009.21 1009.31 1009.45 1009.65 1009.92 1010.29 1010.75 1011.30 1011.93 1012.62 1013.34
1010.84 1010.89 1011.06 1011.34 1011.74 1012.22 1012.75 1013.26 1013.73 1014.09 1014.32 1014.39 1014.30 1014.06 1013.69 1013.20 1012.65 1012.07 1011.50 1010.96 1010.49 1010.11 1009.81 1009.59 1009.46 1009.38 1009.35 1009.35 1009.36 1009.38 1009.40 1009.42 1009.45 1009.49 1009.54 1009.60 1009.67 1009.76 1009.87 1010.00 1010.18 1010.41 1010.71 1011.09 1011.54 1012.06 1012.64 1013.25 1013.85
1011.36 1011.38 1011.52 1011.79 1012.18 1012.66 1013.19 1013.73 1014.22 1014.61 1014.87 1014.97 1014.91 1014.69 1014.33 1013.86 1013.30 1012.69 1012.09 1011.51 1010.99 1010.54 1010.17 1009.89 1009.69 1009.56 1009.49 1009.46 1009.47 1009.51 1009.58 1009.66 1009.76 1009.87 1010.00 1010.13 1010.26 1010.41 1010.57 1010.75 1010.97 1011.24 1011.56 1011.94 1012.39 1012.88 1013.41 1013.95 1014.46
1011.81 1011.80 1011.91 1012.15 1012.50 1012.96 1013.46 1013.98 1014.46 1014.85 1015.11 1015.23 1015.19 1015.00 1014.67 1014.22 1013.69 1013.12 1012.53 1011.96 1011.43 1010.96 1010.56 1010.23 1009.98 1009.80 1009.69 1009.64 1009.64 1009.69 1009.79 1009.92 1010.08 1010.26 1010.46 1010.65 1010.86 1011.06 1011.26 1011.48 1011.73 1012.02 1012.35 1012.74 1013.18 1013.65 1014.14 1014.61 1015.05
Thickness
5822 5827 5830 5828 5823 5819 5806 5809 5815 5813 5815 5819 5819 5815 5808 5803 5796 5785 5803 5810 5806 5802 5795 5786 5781 5778 5776 5774 5772 5770 5769 5767 5766 5766 5765 5764 5764 5764 5763 5763 5763 5762 5762 5762 5762 5761 5761 5761 5760
5828 5830 5828 5827 5819 5803 5800 5811 5810 5812 5817 5821 5818 5814 5809 5803 5806 5804 5805 5805 5804 5800 5794 5787 5779 5777 5774 5772 5770 5768 5767 5766 5765 5764 5763 5763 5762 5762 5762 5761 5761 5760 5760 5760 5759 5759 5758 5758 5758
5830 5830 5826 5825 5814 5805 5801 5811 5813 5817 5822 5820 5814 5814 5808 5802 5804 5805 5806 5805 5802 5797 5792 5784 5778 5775 5773 5770 5768 5767 5765 5764 5763 5762 5761 5761 5760 5760 5760 5759 5759 5758 5758 5758 5757 5756 5756 5756 5756
5829 5827 5827 5818 5807 5812 5813 5816 5817 5815 5817 5820 5816 5807 5808 5809 5809 5809 5807 5805 5800 5796 5792 5784 5777 5773 5771 5769 5767 5765 5763 5762 5761 5760 5759 5759 5758 5758 5758 5757 5757 5756 5756 5756 5755 5754 5753 5753 5753
5828 5825 5815 5808 5808 5814 5820 5821 5821 5815 5814 5815 5815 5805 5802 5808 5812 5809 5805 5803 5799 5796 5792 5784 5775 5772 5769 5767 5765 5763 5761 5760 5759 5758 5757 5757 5756 5756 5756 5755 5755 5755 5754 5754 5753 5752 5752 5751 5751
5822 5822 5807 5801 5805 5812 5819 5824 5821 5816 5815 5815 5813 5805 5801 5808 5807 5805 5804 5802 5799 5795 5790 5783 5774 5770 5767 5765 5762 5760 5759 5758 5757 5756 5755 5755 5754 5754 5754 5754 5754 5754 5754 5753 5752 5751 5750 5750 5749
5817 5815 5807 5806 5804 5807 5815 5824 5820 5816 5812 5814 5817 5805 5801 5804 5806 5806 5803 5801 5798 5794 5789 5784 5778 5771 5767 5764 5761 5759 5757 5756 5755 5754 5754 5753 5752 5752 5753 5754 5754 5754 5754 5753 5751 5750 5749 5748 5747
5824 5817 5806 5806 5802 5805 5817 5821 5822 5818 5815 5823 5820 5805 5800 5802 5806 5805 5801 5797 5794 5791 5788 5783 5779 5775 5771 5767 5761 5758 5756 5754 5753 5752 5752 5751 5752 5752 5753 5754 5754 5754 5753 5752 5750 5748 5747 5746 5745
5822 5808 5801 5805 5804 5808 5817 5815 5820 5826 5819 5817 5818 5815 5813 5808 5805 5799 5794 5792 5789 5786 5785 5782 5779 5775 5772 5769 5763 5759 5755 5754 5753 5752 5750 5751 5754 5754 5754 5753 5752 5751 5751 5750 5748 5747 5746 5745 5744
5813 5802 5805 5814 5816 5813 5815 5814 5816 5815 5810 5809 5809 5810 5810 5805 5800 5794 5790 5787 5785 5782 5782 5781 5778 5775 5772 5769 5764 5761 5759 5756 5755 5754 5752 5752 5752 5752 5752 5749 5749 5748 5748 5748 5747 5745 5745 5745 5746
5810 5804 5809 5812 5816 5815 5813 5814 5818 5811 5804 5808 5806 5804 5803 5800 5797 5793 5791 5789 5787 5783 5780 5780 5777 5773 5771 5767 5764 5761 5759 5756 5755 5752 5751 5750 5750 5751 5750 5750 5749 5748 5748 5748 5746 5746 5746 5746 5745
5805 5806 5808 5810 5814 5812 5811 5812 5811 5809 5809 5818 5817 5811 5804 5797 5795 5793 5791 5789 5787 5783 5779 5778 5775 5771 5768 5766 5763 5760 5758 5756 5755 5751 5750 5749 5749 5748 5748 5747 5747 5747 5747 5745 5746 5745 5744 5743 5743
5800 5802 5806 5810 5811 5811 5809 5807 5807 5806 5814 5817 5814 5808 5803 5799 5797 5795 5792 5789 5784 5779 5776 5775 5772 5768 5764 5762 5760 5759 5755 5755 5752 5749 5748 5747 5747 5746 5746 5745 5744 5745 5744 5743 5743 5742 5741 5741 5741
5801 5801 5803 5806 5807 5808 5803 5804 5803 5803 5812 5810 5806 5803 5801 5798 5796 5792 5788 5783 5780 5776 5774 5772 5768 5765 5761 5758 5756 5755 5754 5750 5750 5747 5746 5744 5744 5743 5743 5743 5742 5742 5741 5741 5741 5740 5739 5739 5738
5800 5794 5797 5801 5803 5804 5802 5792 5796 5804 5807 5802 5801 5799 5797 5796 5793 5788 5785 5781 5778 5774 5771 5768 5765 5762 5758 5756 5754 5752 5751 5749 5747 5745 5743 5741 5741 5740 5740 5741 5740 5739 5739 5737 5737 5737 5737 5736 5736
5793 5788 5785 5794 5799 5800 5793 5783 5795 5803 5801 5796 5796 5795 5792 5790 5790 5787 5784 5779 5776 5772 5768 5765 5764 5759 5755 5753 5751 5751 5749 5747 5745 5743 5741 5739 5738 5737 5737 5738 5738 5736 5736 5736 5735 5736 5735 5733 5733
5783 5779 5781 5785 5794 5795 5790 5783 5793 5799 5796 5792 5791 5790 5787 5785 5785 5784 5782 5777 5774 5769 5764 5760 5758 5755 5752 5750 5749 5748 5745 5744 5743 5741 5740 5737 5735 5735 5735 5735 5734 5734 5734 5734 5735 5734 5733 5730 5729
5774 5778 5777 5779 5787 5786 5781 5781 5788 5793 5791 5789 5789 5787 5784 5781 5780 5780 5778 5775 5770 5766 5761 5756 5752 5750 5749 5747 5745 5745 5743 5742 5740 5739 5736 5734 5734 5733 5733 5732 5731 5732 5732 5731 5730 5729 5728 5728 5727
5780 5775 5772 5777 5785 5779 5775 5776 5782 5786 5785 5785 5785 5783 5781 5778 5778 5777 5774 5771 5766 5761 5756 5752 5748 5746 5745 5743 5742 5741 5739 5739 5738 5737 5733 5732 5731 5731 5730 5731 5728 5729 5728 5727 5728 5727 5726 5725 5725
5772 5768 5770 5773 5777 5773 5770 5771 5779 5782 5780 5781 5781 5778 5777 5775 5772 5770 5769 5766 5761 5756 5753 5749 5745 5743 5742 5740 5738 5737 5736 5736 5736 5735 5731 5730 5729 5728 5729 5727 5727 5726 5725 5724 5723 5723 5724 5723 5723
5766 5766 5767 5765 5770 5772 5766 5763 5771 5778 5780 5779 5779 5778 5776 5771 5768 5765 5762 5760 5757 5753 5749 5747 5743 5741 5739 5737 5736 5734 5732 5732 5731 5730 5728 5727 5726 5725 5725 5724 5724 5723 5724 5722 5721 5720 5719 5719 5720
5759 5771 5767 5763 5758 5761 5763 5752 5765 5772 5771 5771 5772 5773 5771 5769 5766 5762 5759 5755 5753 5750 5747 5743 5740 5738 5736 5734 5732 5729 5727 5725 5725 5725 5724 5723 5723 5723 5722 5722 5721 5721 5721 5719 5719 5718 5718 5716 5716
5764 5770 5766 5763 5759 5756 5759 5751 5762 5769 5762 5766 5769 5770 5768 5767 5763 5758 5755 5752 5750 5747 5743 5739 5735 5733 5731 5729 5728 5725 5724 5723 5723 5722 5720 5720 5720 5719 5719 5718 5717 5717 5717 5716 5715 5714 5714 5715 5714
5766 5762 5760 5760 5758 5740 5752 5747 5752 5764 5762 5763 5765 5765 5763 5761 5758 5754 5751 5748 5745 5742 5739 5735 5730 5726 5724 5723 5723 5720 5719 5718 5717 5716 5716 5717 5717 5717 5716 5716 5715 5715 5714 5713 5712 5711 5711 5711 5710
5759 5749 5737 5735 5737 5742 5755 5746 5750 5763 5765 5762 5760 5760 5758 5755 5752 5748 5745 5742 5739 5735 5732 5730 5725 5721 5719 5718 5716 5715 5714 5714 5712 5712 5712 5712 5714 5713 5712 5713 5711 5711 5710 5710 5709 5708 5708 5708 5707
5753 5750 5734 5725 5733 5745 5747 5742 5754 5761 5762 5760 5758 5756 5753 5749 5748 5744 5741 5738 5734 5731 5728 5725 5721 5717 5715 5713 5711 5710 5710 5711 5711 5709 5709 5709 5710 5710 5708 5708 5708 5707 5707 5707 5706 5706 5706 5705 5704
5748 5749 5757 5743 5739 5735 5742 5746 5748 5754 5751 5750 5748 5747 5745 5744 5741 5739 5736 5733 5730 5727 5723 5720 5716 5713 5710 5709 5707 5705 5705 5705 5705 5705 5705 5706 5705 5705 5704 5704 5704 5704 5703 5703 5702 5703 5702 5702 5702
5754 5752 5743 5736 5719 5719 5732 5737 5741 5741 5741 5741 5740 5739 5738 5737 5734 5732 5730 5728 5726 5723 5719 5715 5712 5708 5706 5704 5703 5702 5701 5700 5700 5700 5699 5699 5699 5699 5699 5699 5700 5699 5699 5698 5698 5699 5699 5699 5699
5740 5739 5737 5738 5734 5721 5719 5731 5750 5743 5740 5737 5737 5737 5735 5732 5729 5726 5724 5722 5720 5717 5714 5710 5707 5704 5701 5699 5698 5697 5696 5696 5695 5694 5694 5694 5694 5694 5694 5695 5695 5695 5695 5695 5694 5695 5696 5695 5695
5744 5740 5735 5721 5719 5725 5725 5726 5746 5744 5740 5737 5734 5732 5730 5727 5726 5723 5719 5716 5713 5711 5708 5705 5703 5700 5697 5695 5693 5691 5690 5690 5689 5689 5688 5688 5688 5689 5690 5690 5690 5691 5691 5691 5691 5691 5691 5691 5691